Location: Peebles
(55.6412°N, 3.1714°W)
Time: 00:35:01
(UTC+01:00)

FENGYUN 1C DEB - Pass Details

Date: 04 July 2022
Orbit: 580 x 1160 km, 99.3° (Epoch: 11 August)

Event Time Altitude Azimuth Distance (km) Brightness Sun altitude
Exits shadow 02:04:44 11° 217° (SW) 2,502 ? -10.8°
Maximum altitude 02:09:22 27° 272° (W) 1,787 ? -10.7°
Drops below altitude 10° 02:14:45 10° 328° (NNW) 2,884 ? -10.5°
Sets 02:17:55 0° 340° (NNW) 3,918 ? -10.4°
